Location: ???????
(55.3754°N, 39.3545°E)
Time: 15:31:50
(UTC+00:00)

ATLAS 2AS CENTAUR R/B - Pass Details

Date: 14 April 2026
Orbit: 1052 x 1158 km, 63.7° (Epoch: 17 May)

Event Time Altitude Azimuth Distance (km) Brightness Sun altitude
Exits shadow 22:08:26 32° 140° (SE) 1,772 3.5 -24.3°
Maximum altitude 22:09:42 34° 119° (ESE) 1,698 3.6 -24.2°
Drops below altitude 10° 22:15:41 10° 58° (ENE) 2,894 5.6 -24.0°
Sets 22:18:32 0° 49° (NE) 3,844 6.5 -23.9°
